Location: Lango�lan
(48.1202°N, 3.2340°W)
Time: 08:09:51
(UTC+00:00)

Meteor PRIRODA - Pass Details

Date: 23 October 2019
Orbit: 492 x 511 km, 97.5° (Epoch: 13 November)

Event Time Altitude Azimuth Distance (km) Brightness Sun altitude
Rises 05:08:58 0° 13° (NNE) 2,635 7.5 -16.4°
Reaches altitude 10° 05:11:05 10° 15° (NNE) 1,742 6.6 -16.1°
Maximum altitude 05:14:50 81° 103° (ESE) 523 3.7 -15.5°
Drops below altitude 10° 05:18:33 10° 191° (S) 1,720 6.2 -14.8°
Sets 05:20:37 0° 192° (SSW) 2,598 7.1 -14.5°
